Lewiston, WA

6:39 AM PST on February 22, 2018 (GMT -0800)
Lewiston-Nez Perce County

Weather History for KLWS - June, 2012

Change the Weather History Date:

Wednesday, June 27, 2012

  Actual Average Record
Temperature  
Mean Temperature 63 °F 69 °F  
Max Temperature 79 °F 82 °F 107 °F (2015)
Min Temperature 46 °F 56 °F 43 °F (1975)
Degree Days  
Heating Degree Days 2 1  
Month to date heating degree days 74 67  
Since 1 June heating degree days 74 67  
Since 1 July heating degree days 4981 5164  
Cooling Degree Days 0 5  
Month to date cooling degree days 68 80  
Year to date cooling degree days 95 112  
Since 1 June cooling degree days 68 80  
Growing Degree Days 12 (Base 50)    
Moisture  
Dew Point 45 °F    
Average Humidity 61    
Maximum Humidity 93    
Minimum Humidity 28    
Precipitation  
Precipitation 0.00 in 0.03 in 1.20 in (1934)
Month to date precipitation 1.91 1.14  
Year to date precipitation 10.50 7.08  
Snow  
Snow 0.00 in 0.00 in T in (1952)
Month to date snowfall 0.0 0.0  
Since 1 June snowfall 0.0 0.0  
Since 1 July snowfall 13.5 10.5  
Snow Depth 0.00 in    
Sea Level Pressure  
Sea Level Pressure 30.01 in    
Wind  
Wind Speed 5 mph (ENE)    
Max Wind Speed 12 mph    
Max Gust Speed 16 mph    
Visibility 10 miles    
Events      
T = Trace of Precipitation, MM = Missing Value Source: NWS Daily Summary

Daily Weather History Graph

Daily Weather History Graph

Search for Another Location

Airport or City:

Trip Planner

Search our weather history database for the weather conditions in past years. The results will help you decide how hot, cold, wet, or windy it might be!

Date:

Astronomy

Jun. 27, 2012 Rise Set
Actual Time 4:57 AM PDT 8:44 PM PDT
Civil Twilight 4:18 AM PDT 9:23 PM PDT
Nautical Twilight 3:26 AM PDT 10:15 PM PDT
Astronomical Twilight 2:11 AM PDT 11:30 PM PDT
Moon 1:59 PM PDT (6/27) 12:16 AM PDT (6/27)
Length of Visible Light 17h 04m
Length of Day
15h 46m
First Quarter, 57% of the Moon is Illuminated
Jun 27
First Quarter
Jul 3
Full
Jul 10
Last Quarter
Jul 18
New
Jul 26
First Quarter

Hourly Weather History & Observations

Time (PDT) Temp. Dew Point Humidity Pressure Visibility Wind Dir Wind Speed Gust Speed Precip Events Conditions
12:56 AM 50.0 °F 46.0 °F 86% 30.04 in 10.0 mi SSE 3.5 mph - N/A   Clear
1:56 AM 50.0 °F 45.0 °F 83% 30.05 in 10.0 mi Calm Calm - N/A   Clear
2:56 AM 48.9 °F 46.0 °F 90% 30.06 in 10.0 mi SSE 3.5 mph - N/A   Clear
3:56 AM 46.0 °F 43.0 °F 89% 30.07 in 10.0 mi Calm Calm - N/A   Clear
4:56 AM 46.0 °F 43.0 °F 89% 30.08 in 10.0 mi Calm Calm - N/A   Clear
5:56 AM 48.9 °F 45.0 °F 86% 30.09 in 10.0 mi Calm Calm - N/A   Clear
6:56 AM 52.0 °F 46.0 °F 80% 30.09 in 10.0 mi NE 5.8 mph - N/A   Clear
7:56 AM 55.9 °F 48.0 °F 75% 30.09 in 10.0 mi NE 6.9 mph - N/A   Clear
8:56 AM 59.0 °F 46.9 °F 64% 30.08 in 10.0 mi NE 5.8 mph - N/A   Clear
9:56 AM 62.1 °F 48.0 °F 60% 30.07 in 10.0 mi Variable 3.5 mph - N/A   Clear
10:56 AM 66.0 °F 48.0 °F 52% 30.06 in 10.0 mi Variable 5.8 mph - N/A   Clear
11:56 AM 71.1 °F 46.9 °F 42% 30.04 in 10.0 mi NE 9.2 mph - N/A   Clear
12:56 PM 73.0 °F 42.1 °F 33% 30.02 in 10.0 mi East 6.9 mph - N/A   Clear
1:56 PM 75.9 °F 42.1 °F 30% 30.00 in 10.0 mi NE 8.1 mph - N/A   Clear
2:56 PM 77.0 °F 41.0 °F 28% 29.98 in 10.0 mi East 5.8 mph - 0.00 in   Clear
3:56 PM 78.1 °F 42.1 °F 28% 29.97 in 10.0 mi NNE 10.4 mph - 0.00 in   Clear
4:56 PM 79.0 °F 43.0 °F 28% 29.96 in 10.0 mi NE 4.6 mph - N/A   Clear
5:56 PM 78.1 °F 44.1 °F 30% 29.94 in 10.0 mi East 6.9 mph - N/A   Clear
6:56 PM 77.0 °F 45.0 °F 32% 29.94 in 10.0 mi ENE 8.1 mph - N/A   Clear
7:56 PM 75.0 °F 44.1 °F 33% 29.93 in 10.0 mi NE 5.8 mph - N/A   Clear
8:56 PM 72.0 °F 45.0 °F 38% 29.93 in 10.0 mi NE 3.5 mph - N/A   Clear
9:56 PM 64.9 °F 51.1 °F 61% 29.94 in 10.0 mi SSE 5.8 mph - N/A   Clear
10:56 PM 62.1 °F 48.0 °F 60% 29.93 in 10.0 mi ESE 6.9 mph - N/A   Clear
11:56 PM 63.0 °F 46.9 °F 56% 29.93 in 10.0 mi SSE 3.5 mph - N/A   Clear